Time,TemperatureF,DewpointF,PressureIn,WindDirection,WindDirectionDegrees,WindSpeedMPH,WindSpeedGustMPH,Humidity,HourlyPrecipIn,Conditions,Clouds,dailyrainin,SoftwareType,DateUTC
2013-01-27 00:05:00,23.6,18.0,30.46,ESE,123,4.0,5.0,79,0.00,,,0.00,weatherlink.com 1.10,2013-01-27 06:05:00,
2013-01-27 00:20:00,24.1,18.0,30.46,ESE,113,5.0,6.0,78,0.00,,,0.00,weatherlink.com 1.10,2013-01-27 06:20:00,
2013-01-27 00:35:00,24.2,18.0,30.46,ESE,108,3.0,6.0,78,0.00,,,0.00,weatherlink.com 1.10,2013-01-27 06:35:00,
2013-01-27 00:50:00,24.0,18.0,30.45,SE,126,7.0,8.0,77,0.00,,,0.00,weatherlink.com 1.10,2013-01-27 06:50:00,
2013-01-27 01:05:00,23.6,18.0,30.46,ESE,115,5.0,8.0,78,0.00,,,0.00,weatherlink.com 1.10,2013-01-27 07:05:00,
2013-01-27 01:20:00,23.6,18.0,30.46,SE,125,8.0,9.0,78,0.00,,,0.00,weatherlink.com 1.10,2013-01-27 07:20:00,
2013-01-27 01:35:00,23.0,18.0,30.46,ESE,108,4.0,8.0,80,0.00,,,0.00,weatherlink.com 1.10,2013-01-27 07:35:00,
2013-01-27 01:51:00,22.8,18.0,30.46,SE,131,5.0,8.0,82,0.00,,,0.00,weatherlink.com 1.10,2013-01-27 07:51:00,
2013-01-27 02:05:00,22.9,18.0,30.46,ESE,119,5.0,8.0,82,0.00,,,0.00,weatherlink.com 1.10,2013-01-27 08:05:00,
2013-01-27 02:20:00,22.7,18.0,30.45,SE,140,6.0,8.0,83,0.00,,,0.00,weatherlink.com 1.10,2013-01-27 08:20:00,
2013-01-27 02:35:00,22.5,18.0,30.44,SE,128,7.0,9.0,83,0.00,,,0.00,weatherlink.com 1.10,2013-01-27 08:35:00,
2013-01-27 02:51:00,22.6,19.0,30.44,SSE,153,3.0,9.0,84,0.00,,,0.00,weatherlink.com 1.10,2013-01-27 08:51:00,
2013-01-27 03:06:00,22.7,19.0,30.43,SE,132,8.0,9.0,84,0.00,,,0.00,weatherlink.com 1.10,2013-01-27 09:06:00,
2013-01-27 03:20:00,22.6,19.0,30.42,ESE,120,7.0,9.0,84,0.00,,,0.00,weatherlink.com 1.10,2013-01-27 09:20:00,
2013-01-27 03:35:00,22.7,19.0,30.42,ESE,116,6.0,10.0,84,0.00,,,0.00,weatherlink.com 1.10,2013-01-27 09:35:00,
2013-01-27 03:51:00,22.8,19.0,30.42,ESE,103,7.0,10.0,84,0.00,,,0.00,weatherlink.com 1.10,2013-01-27 09:51:00,
2013-01-27 04:06:00,22.9,19.0,30.42,SE,127,10.0,11.0,84,0.00,,,0.00,weatherlink.com 1.10,2013-01-27 10:06:00,
2013-01-27 04:21:00,22.8,19.0,30.41,SE,129,6.0,11.0,84,0.00,,,0.00,weatherlink.com 1.10,2013-01-27 10:21:00,
2013-01-27 04:36:00,22.9,19.0,30.40,ESE,122,6.0,10.0,85,0.00,,,0.00,weatherlink.com 1.10,2013-01-27 10:36:00,
2013-01-27 04:51:00,23.1,19.0,30.40,ESE,115,8.0,11.0,84,0.00,,,0.00,weatherlink.com 1.10,2013-01-27 10:51:00,
2013-01-27 05:06:00,23.3,19.0,30.39,SE,132,10.0,14.0,84,0.00,,,0.00,weatherlink.com 1.10,2013-01-27 11:06:00,
2013-01-27 05:21:00,23.5,19.0,30.38,ESE,119,9.0,13.0,83,0.00,,,0.00,weatherlink.com 1.10,2013-01-27 11:21:00,
2013-01-27 05:36:00,23.6,19.0,30.38,SE,125,8.0,13.0,83,0.00,,,0.00,weatherlink.com 1.10,2013-01-27 11:36:00,
2013-01-27 05:51:00,23.9,20.0,30.39,ESE,120,10.0,13.0,83,0.00,,,0.00,weatherlink.com 1.10,2013-01-27 11:51:00,
2013-01-27 06:06:00,23.9,20.0,30.39,ESE,121,10.0,13.0,83,0.00,,,0.00,weatherlink.com 1.10,2013-01-27 12:06:00,
2013-01-27 06:21:00,24.1,20.0,30.39,SE,138,10.0,12.0,84,0.00,,,0.00,weatherlink.com 1.10,2013-01-27 12:21:00,
2013-01-27 06:36:00,24.6,20.0,30.39,SE,136,8.0,11.0,83,0.00,,,0.00,weatherlink.com 1.10,2013-01-27 12:36:00,
2013-01-27 06:51:00,25.8,20.0,30.40,SSE,149,7.0,15.0,80,0.00,,,0.00,weatherlink.com 1.10,2013-01-27 12:51:00,
2013-01-27 07:06:00,26.3,21.0,30.39,SE,125,10.0,15.0,79,0.00,,,0.00,weatherlink.com 1.10,2013-01-27 13:06:00,
2013-01-27 07:21:00,26.2,21.0,30.38,SE,131,15.0,18.0,79,0.00,,,0.00,weatherlink.com 1.10,2013-01-27 13:21:00,
2013-01-27 07:36:00,26.2,21.0,30.37,ESE,122,10.0,19.0,79,0.00,,,0.00,weatherlink.com 1.10,2013-01-27 13:36:00,
2013-01-27 07:51:00,26.4,21.0,30.37,SE,131,10.0,19.0,79,0.00,,,0.00,weatherlink.com 1.10,2013-01-27 13:51:00,
2013-01-27 08:06:00,26.7,21.0,30.38,SE,142,16.0,18.0,79,0.00,,,0.00,weatherlink.com 1.10,2013-01-27 14:06:00,
2013-01-27 08:21:00,27.0,21.0,30.38,ESE,104,11.0,19.0,78,0.00,,,0.00,weatherlink.com 1.10,2013-01-27 14:21:00,
2013-01-27 08:36:00,27.4,21.0,30.39,SE,144,6.0,15.0,78,0.00,,,0.00,weatherlink.com 1.10,2013-01-27 14:36:00,
2013-01-27 08:51:00,28.0,22.0,30.39,SE,131,9.0,17.0,79,0.00,,,0.00,weatherlink.com 1.10,2013-01-27 14:51:00,
2013-01-27 09:06:00,28.6,23.0,30.39,South,170,10.0,15.0,78,0.00,,,0.00,weatherlink.com 1.10,2013-01-27 15:06:00,
2013-01-27 09:21:00,29.0,23.0,30.39,SE,138,7.0,14.0,77,0.00,,,0.00,weatherlink.com 1.10,2013-01-27 15:21:00,
2013-01-27 09:36:00,29.2,23.0,30.39,South,176,10.0,14.0,78,0.00,,,0.00,weatherlink.com 1.10,2013-01-27 15:36:00,
2013-01-27 09:51:00,29.5,23.0,30.38,SE,134,5.0,16.0,77,0.00,,,0.00,weatherlink.com 1.10,2013-01-27 15:51:00,
2013-01-27 10:06:00,29.9,24.0,30.38,South,184,12.0,18.0,77,0.00,,,0.00,weatherlink.com 1.10,2013-01-27 16:06:00,
2013-01-27 10:21:00,30.1,24.0,30.38,SSE,156,10.0,20.0,77,0.00,,,0.00,weatherlink.com 1.10,2013-01-27 16:21:00,
2013-01-27 10:36:00,30.4,24.0,30.36,SSE,150,11.0,18.0,77,0.00,,,0.00,weatherlink.com 1.10,2013-01-27 16:36:00,
2013-01-27 10:51:00,30.6,24.0,30.34,SSE,150,11.0,18.0,76,0.00,,,0.00,weatherlink.com 1.10,2013-01-27 16:51:00,
2013-01-27 11:06:00,31.0,25.0,30.32,SE,132,13.0,21.0,77,0.00,,,0.00,weatherlink.com 1.10,2013-01-27 17:06:00,
2013-01-27 11:22:00,31.4,25.0,30.31,SE,127,14.0,21.0,76,0.00,,,0.00,weatherlink.com 1.10,2013-01-27 17:22:00,
2013-01-27 11:36:00,31.3,25.0,30.29,SE,138,8.0,21.0,78,0.00,,,0.00,weatherlink.com 1.10,2013-01-27 17:36:00,
2013-01-27 11:52:00,31.5,26.0,30.28,SSE,150,9.0,19.0,81,0.00,,,0.00,weatherlink.com 1.10,2013-01-27 17:52:00,
2013-01-27 12:07:00,31.6,27.0,30.26,ESE,111,19.0,21.0,83,0.00,,,0.00,weatherlink.com 1.10,2013-01-27 18:07:00,
2013-01-27 12:22:00,31.9,27.0,30.26,SE,127,10.0,19.0,82,0.00,,,0.00,weatherlink.com 1.10,2013-01-27 18:22:00,
2013-01-27 12:37:00,31.9,27.0,30.25,ESE,123,12.0,20.0,82,0.00,,,0.00,weatherlink.com 1.10,2013-01-27 18:37:00,
2013-01-27 12:54:00,32.2,28.0,30.21,SE,127,14.0,20.0,83,0.00,,,0.00,weatherlink.com 1.10,2013-01-27 18:54:00,
2013-01-27 13:07:00,32.3,28.0,30.21,SE,135,8.0,17.0,84,0.00,,,0.00,weatherlink.com 1.10,2013-01-27 19:07:00,
2013-01-27 13:22:00,32.5,29.0,30.21,ESE,109,9.0,17.0,85,0.00,,,0.00,weatherlink.com 1.10,2013-01-27 19:22:00,
2013-01-27 13:37:00,32.3,28.0,30.20,SSE,160,7.0,16.0,85,0.00,,,0.00,weatherlink.com 1.10,2013-01-27 19:37:00,
2013-01-27 13:52:00,32.3,29.0,30.19,SSE,152,9.0,16.0,87,0.00,,,0.00,weatherlink.com 1.10,2013-01-27 19:52:00,
2013-01-27 14:07:00,32.3,29.0,30.18,SE,129,12.0,16.0,88,0.00,,,0.00,weatherlink.com 1.10,2013-01-27 20:07:00,
2013-01-27 14:22:00,32.1,30.0,30.18,SSE,153,8.0,16.0,90,0.00,,,0.00,weatherlink.com 1.10,2013-01-27 20:22:00,
2013-01-27 14:37:00,31.9,30.0,30.17,SSE,153,9.0,17.0,92,0.00,,,0.00,weatherlink.com 1.10,2013-01-27 20:37:00,
2013-01-27 14:52:00,32.1,30.0,30.17,SE,127,9.0,14.0,93,0.00,,,0.00,weatherlink.com 1.10,2013-01-27 20:52:00,
2013-01-27 15:07:00,32.4,31.0,30.17,SSE,148,7.0,16.0,94,0.00,,,0.00,weatherlink.com 1.10,2013-01-27 21:07:00,
2013-01-27 15:22:00,32.6,31.0,30.18,SE,142,8.0,10.0,94,0.00,,,0.00,weatherlink.com 1.10,2013-01-27 21:22:00,
2013-01-27 15:37:00,32.7,31.0,30.17,SSE,150,13.0,16.0,94,0.00,,,0.00,weatherlink.com 1.10,2013-01-27 21:37:00,
2013-01-27 15:52:00,32.7,31.0,30.15,SSE,153,8.0,15.0,94,0.00,,,0.00,weatherlink.com 1.10,2013-01-27 21:52:00,
2013-01-27 16:07:00,32.7,31.0,30.13,ESE,118,8.0,15.0,94,0.00,,,0.00,weatherlink.com 1.10,2013-01-27 22:07:00,
2013-01-27 16:22:00,32.8,31.0,30.11,ESE,117,12.0,17.0,94,0.00,,,0.00,weatherlink.com 1.10,2013-01-27 22:22:00,
2013-01-27 16:37:00,33.0,32.0,30.11,SSE,149,14.0,19.0,94,0.00,,,0.00,weatherlink.com 1.10,2013-01-27 22:37:00,
2013-01-27 17:08:00,33.5,32.0,30.10,ESE,122,8.0,21.0,94,0.01,,,0.01,weatherlink.com 1.10,2013-01-27 23:08:00,
2013-01-27 17:22:00,33.7,32.0,30.10,SE,145,16.0,23.0,94,0.01,,,0.01,weatherlink.com 1.10,2013-01-27 23:22:00,
2013-01-27 17:38:00,33.9,32.0,30.11,SSE,157,8.0,22.0,94,0.01,,,0.01,weatherlink.com 1.10,2013-01-27 23:38:00,
2013-01-27 17:52:00,33.8,32.0,30.09,SSE,155,11.0,24.0,94,0.01,,,0.01,weatherlink.com 1.10,2013-01-27 23:52:00,
2013-01-27 18:08:00,34.0,33.0,30.08,SSE,155,14.0,22.0,95,0.00,,,0.01,weatherlink.com 1.10,2013-01-28 00:08:00,
2013-01-27 18:22:00,34.2,33.0,30.07,SE,141,15.0,22.0,96,0.00,,,0.01,weatherlink.com 1.10,2013-01-28 00:22:00,
2013-01-27 18:37:00,34.5,34.0,30.05,SSE,160,18.0,25.0,96,0.00,,,0.01,weatherlink.com 1.10,2013-01-28 00:37:00,
2013-01-27 18:52:00,34.7,34.0,30.04,SSE,152,20.0,25.0,96,0.01,,,0.02,weatherlink.com 1.10,2013-01-28 00:52:00,
2013-01-27 19:08:00,34.7,34.0,30.04,SSE,159,21.0,29.0,97,0.01,,,0.02,weatherlink.com 1.10,2013-01-28 01:08:00,
2013-01-27 19:23:00,34.9,34.0,30.03,SSE,162,18.0,32.0,97,0.01,,,0.02,weatherlink.com 1.10,2013-01-28 01:23:00,
2013-01-27 19:38:00,34.9,34.0,30.02,SE,146,25.0,29.0,97,0.01,,,0.02,weatherlink.com 1.10,2013-01-28 01:38:00,
2013-01-27 19:53:00,35.2,35.0,30.02,SSE,149,13.0,29.0,97,0.00,,,0.02,weatherlink.com 1.10,2013-01-28 01:53:00,
2013-01-27 20:08:00,35.9,35.0,30.01,SSE,147,22.0,30.0,97,0.00,,,0.02,weatherlink.com 1.10,2013-01-28 02:08:00,
2013-01-27 20:23:00,35.9,35.0,30.01,South,172,19.0,30.0,97,0.00,,,0.02,weatherlink.com 1.10,2013-01-28 02:23:00,
2013-01-27 20:38:00,36.1,36.0,30.01,SE,142,20.0,33.0,98,0.00,,,0.02,weatherlink.com 1.10,2013-01-28 02:38:00,
2013-01-27 20:53:00,36.3,36.0,30.01,South,181,17.0,32.0,98,0.00,,,0.02,weatherlink.com 1.10,2013-01-28 02:53:00,
2013-01-27 21:08:00,36.7,36.0,30.00,SSE,159,25.0,31.0,98,0.00,,,0.02,weatherlink.com 1.10,2013-01-28 03:08:00,
2013-01-27 21:38:00,37.4,37.0,30.01,SSE,166,19.0,27.0,98,0.00,,,0.02,weatherlink.com 1.10,2013-01-28 03:38:00,
2013-01-27 21:53:00,37.6,37.0,30.04,South,186,17.0,23.0,98,0.00,,,0.02,weatherlink.com 1.10,2013-01-28 03:53:00,
2013-01-27 22:08:00,38.5,38.0,30.04,SSW,212,12.0,19.0,98,0.00,,,0.02,weatherlink.com 1.10,2013-01-28 04:08:00,
2013-01-27 22:23:00,39.0,39.0,30.04,SSW,211,10.0,16.0,99,0.00,,,0.02,weatherlink.com 1.10,2013-01-28 04:23:00,
2013-01-27 22:53:00,42.2,42.0,30.05,SSW,203,17.0,21.0,99,0.02,,,0.04,weatherlink.com 1.10,2013-01-28 04:53:00,
2013-01-27 23:08:00,42.2,42.0,30.05,SSW,207,14.0,18.0,99,0.02,,,0.04,weatherlink.com 1.10,2013-01-28 05:08:00,
2013-01-27 23:23:00,42.0,42.0,30.05,SW,215,10.0,18.0,99,0.02,,,0.04,weatherlink.com 1.10,2013-01-28 05:23:00,
2013-01-27 23:38:00,42.4,42.0,30.04,SSW,211,17.0,22.0,98,0.00,,,0.04,weatherlink.com 1.10,2013-01-28 05:38:00,
2013-01-27 23:53:00,42.9,42.0,30.03,SW,222,12.0,21.0,97,0.00,,,0.04,weatherlink.com 1.10,2013-01-28 05:53:00,